Terminal Aerodrome Forecast
Issued by NWS

Home | Current Version | Previous Version | Text Only | Print | Product List | Glossary On
Versions: 1 2 3 4 5 6 7 8 9 10 11 12 13 14 15 16 17 18 19 20 21 22 23 24 25 26
000
FTUS42 KGSP 181200 AAA
TAFGMU
TAF AMD
KGMU 181217Z 1812/1912 03007KT P6SM SCT015 BKN045
      TEMPO 1812/1815 BKN015 OVC045
     FM181500 05006KT P6SM BKN050
     FM181700 07004KT P6SM SCT050
     FM190800 04005KT P6SM BKN027
     FM191100 04006KT P6SM BKN015=

USA.gov is the U.S. government's official web portal to all federal, state and local government web resources and services.